Wind_Speed
57 58 59 61 62 66 69 72 74 76 77 78 78 79 78 75 72 68 65 64 62 60 56 51 47 45 44 43 43 41 40 36 28 20 21 23 23 27 36 50 64 76 85
57 58 59 61 62 65 68 71 74 76 77 78 78 78 77 74 71 67 64 63 61 59 54 49 45 43 42 42 41 40 39 36 31 23 19 20 21 23 31 44 57 68 77
58 58 59 61 62 64 68 71 73 75 76 77 77 77 76 73 70 66 63 62 60 58 54 48 44 41 40 40 40 39 37 35 32 26 19 19 18 20 26 38 51 62 70
59 59 59 61 62 64 67 70 73 74 75 76 76 76 75 72 69 65 63 61 59 57 53 48 43 40 39 39 38 38 36 33 31 27 21 18 17 17 23 34 46 56 63
59 59 59 60 63 64 67 70 72 74 75 75 75 74 74 71 68 64 61 60 58 56 53 48 43 40 38 38 38 37 36 33 30 27 22 17 15 15 21 31 42 52 58
59 59 60 61 63 65 67 69 72 73 74 74 74 73 72 70 66 63 61 60 58 56 53 48 43 39 37 37 37 36 35 33 30 27 23 18 13 13 19 29 39 48 54
59 59 60 62 63 66 67 69 71 72 73 73 72 71 71 69 66 61 59 58 57 56 53 48 42 39 36 35 35 35 34 32 30 26 22 17 12 11 18 27 37 45 51
60 60 61 63 64 66 67 69 70 71 71 71 71 70 69 68 65 60 57 56 56 54 52 48 42 38 36 33 32 33 33 31 29 25 21 16 11 10 16 26 35 43 49
61 62 62 64 66 67 68 69 69 70 69 69 70 68 67 66 64 60 57 55 54 53 51 49 43 38 35 32 31 31 31 30 29 25 21 15 10 9 16 25 34 41 46
64 64 64 65 67 67 68 68 68 68 68 68 68 67 65 64 63 60 57 54 52 51 49 48 44 39 35 32 30 30 30 29 27 24 20 14 8 8 15 24 33 39 44
66 66 66 66 67 68 68 67 67 67 66 65 66 65 64 63 61 59 56 53 51 50 48 47 44 38 34 31 30 29 29 28 26 23 19 13 7 7 14 22 31 37 41
67 67 67 67 67 67 67 66 65 65 64 63 63 63 62 61 60 57 54 52 51 49 48 46 44 39 33 31 29 28 28 27 25 23 18 13 6 5 13 21 30 36 39
67 67 67 67 66 65 64 63 63 62 62 60 61 60 59 59 57 55 53 51 50 48 47 45 44 41 34 30 29 27 26 26 25 22 17 12 6 2 11 19 27 34 37
64 65 65 64 63 63 61 61 60 59 59 58 58 57 56 56 55 53 51 49 47 47 46 45 44 42 37 32 29 27 25 24 23 20 17 12 7 2 9 17 24 31 35
61 61 61 61 60 60 59 58 57 56 55 55 54 54 53 53 52 51 48 46 45 45 44 44 43 41 38 33 28 26 24 23 22 19 16 12 7 4 8 15 21 27 32
58 58 57 56 56 55 54 53 53 53 52 51 51 51 51 51 50 49 47 45 44 43 43 43 41 40 36 33 28 24 22 21 20 18 15 12 8 5 9 15 19 23 27
56 55 55 54 53 52 51 50 49 49 49 48 48 49 48 48 48 48 46 44 42 42 42 42 41 39 36 33 29 24 21 19 18 16 14 11 8 7 11 15 19 21 24
53 53 53 53 52 51 49 47 46 46 46 45 45 46 45 45 46 46 44 43 41 40 40 40 40 38 35 32 29 24 20 17 16 14 12 10 7 8 11 15 19 21 25
52 52 52 51 50 49 47 45 43 43 43 42 43 43 43 43 43 43 42 41 40 39 38 38 38 37 35 32 29 25 20 16 13 12 11 9 7 7 10 13 17 20 24
53 52 51 50 49 47 45 42 41 41 40 40 40 40 40 40 40 40 40 39 38 37 36 36 36 36 35 32 29 25 20 15 11 9 8 7 6 6 9 14 18 22 25
54 53 52 51 49 46 43 40 39 38 37 37 38 37 37 37 37 38 38 37 36 35 34 34 35 35 34 32 29 25 20 15 11 7 6 6 6 7 10 14 18 21 24
54 53 52 50 48 45 41 38 37 36 35 35 35 35 34 34 35 35 36 35 34 33 32 33 33 33 33 32 29 25 21 15 10 6 4 4 6 8 10 14 18 21 24
54 52 50 47 45 42 39 36 34 34 32 32 32 32 31 31 32 33 33 33 32 31 30 31 31 31 32 32 30 26 22 16 10 5 2 4 6 9 12 14 17 21 24
52 49 47 44 43 40 36 33 32 31 30 29 29 28 28 28 29 30 31 31 30 29 29 29 29 30 30 30 30 27 23 17 11 5 2 4 7 11 13 15 17 20 23
49 47 44 42 40 38 34 31 29 28 27 27 26 25 25 26 26 28 29 29 28 27 27 27 28 28 29 29 29 28 24 19 13 7 1 5 8 12 15 16 18 20 23
46 44 41 39 38 36 32 29 26 26 25 24 23 22 22 23 24 25 26 27 26 26 25 26 26 27 28 28 28 28 26 21 14 8 3 4 8 12 15 17 19 20 23
Wind_Direction
326 328 329 330 332 334 337 338 339 340 341 342 343 344 346 345 344 343 343 343 343 342 341 340 340 341 342 342 342 341 339 337 336 318 294 282 269 248 229 220 214 210 209
324 326 327 328 330 333 336 338 339 340 341 342 343 345 346 346 345 345 344 345 344 344 342 341 341 342 342 343 343 342 340 338 337 330 305 288 275 253 232 220 214 210 209
322 324 325 326 329 332 335 337 338 340 341 342 343 345 347 347 346 345 345 345 346 346 344 342 342 343 343 343 344 343 341 339 337 334 318 297 280 256 231 218 213 209 208
320 322 323 325 327 330 333 336 337 339 341 342 343 345 347 348 347 346 346 346 347 347 345 344 343 343 344 344 344 344 342 340 338 334 325 304 284 257 229 215 209 207 207
318 320 322 324 326 328 331 334 336 338 340 341 343 345 347 348 347 347 346 346 348 348 347 345 344 344 344 345 345 345 344 343 340 337 329 312 288 255 225 211 206 204 204
316 318 320 321 323 326 329 332 335 337 339 340 343 345 347 349 348 347 346 347 349 350 349 347 345 345 345 345 346 346 346 344 342 338 332 318 292 254 220 207 202 201 201
314 316 318 319 321 324 327 330 333 335 337 339 342 345 347 349 348 347 347 347 349 350 350 348 346 345 345 346 346 347 345 343 342 338 333 321 296 250 215 203 199 198 199
312 314 316 317 319 322 325 328 331 333 335 338 341 344 346 349 349 348 348 348 349 350 351 350 347 346 346 346 347 348 348 345 343 340 335 323 297 245 213 201 196 195 197
311 313 314 315 317 320 322 325 328 331 333 336 339 343 346 348 349 349 349 349 350 350 351 351 349 348 347 347 348 350 350 348 346 343 337 327 296 240 210 199 195 194 195
309 310 311 313 315 317 320 323 326 328 331 334 337 342 345 348 349 349 350 350 350 351 351 352 351 350 349 349 350 352 352 351 349 347 342 332 300 233 206 197 193 193 194
307 308 309 310 313 315 318 321 323 326 328 332 336 340 344 347 349 349 349 350 351 352 353 353 353 351 349 350 352 354 354 353 353 352 349 341 313 230 204 195 192 191 193
305 306 307 309 311 313 316 318 321 323 326 330 334 338 343 347 349 349 349 350 351 352 353 354 355 354 351 352 354 355 357 356 356 356 356 352 336 227 200 194 191 189 191
303 305 307 309 311 313 315 317 319 321 323 327 332 337 342 346 348 349 349 350 351 352 353 354 356 357 356 355 356 357 358 359 359 0 2 2 2 194 190 190 189 188 190
302 304 306 307 309 311 314 316 317 318 321 325 330 335 340 345 347 349 350 350 351 352 353 355 356 358 359 358 358 358 360 1 2 5 8 11 22 123 180 186 187 187 189
302 304 305 307 308 310 312 314 315 316 318 322 328 333 339 344 347 349 349 350 351 352 354 355 357 359 360 359 358 359 1 3 6 9 12 18 29 98 158 176 180 183 186
302 304 305 307 308 310 312 314 315 314 316 320 326 332 337 342 347 349 350 350 351 353 355 356 358 359 0 0 360 360 3 5 8 12 16 22 37 91 144 160 168 175 181
302 304 306 307 308 309 311 314 314 314 314 318 324 330 336 341 346 348 350 350 351 353 355 357 359 360 0 1 2 2 4 7 11 16 22 30 50 102 137 152 159 165 172
302 303 305 306 308 309 310 312 313 313 313 316 322 328 334 340 345 348 350 350 351 353 355 357 359 0 1 2 3 4 5 8 13 20 28 39 62 113 137 150 158 165 169
301 302 304 306 307 308 310 311 311 311 311 314 320 326 333 339 344 348 349 350 351 353 355 357 359 1 2 2 3 4 6 9 14 23 34 48 70 115 141 154 162 165 168
298 300 302 304 305 307 309 309 309 309 309 312 318 325 331 338 343 346 349 350 351 353 355 356 358 0 2 3 3 5 6 9 14 25 40 57 77 112 141 153 160 163 164
295 295 297 300 301 304 306 306 305 305 306 310 316 323 330 337 342 346 348 350 351 352 354 356 358 0 2 3 4 5 6 8 13 25 48 73 95 120 146 158 162 162 163
292 292 293 294 297 299 301 302 301 301 303 307 313 320 328 335 341 346 348 350 351 352 354 356 358 360 2 4 4 5 6 8 12 21 54 100 122 136 150 162 166 167 168
289 288 287 288 290 293 296 298 297 297 299 304 311 318 326 334 341 345 348 350 351 351 353 356 358 360 2 4 5 6 6 8 11 20 65 125 144 151 157 164 169 171 171
286 284 282 282 284 286 290 292 293 293 295 300 308 316 324 333 340 345 348 350 351 351 353 356 358 360 2 4 6 7 7 8 10 19 95 144 155 161 164 168 172 175 176
283 279 276 275 277 280 284 286 286 287 290 296 304 313 322 332 340 345 348 350 350 351 353 355 358 0 2 4 6 8 8 8 9 16 94 160 165 169 171 172 175 178 178
282 275 270 268 270 273 276 278 277 279 285 291 300 310 320 331 339 345 348 350 350 351 352 355 358 0 2 4 6 8 9 10 11 15 44 165 173 175 176 178 178 179 179
Height
5700 5690 5680 5669 5657 5645 5632 5617 5602 5586 5569 5551 5534 5516 5497 5478 5460 5443 5426 5409 5393 5377 5362 5349 5336 5323 5312 5300 5289 5279 5269 5260 5255 5250 5244 5241 5238 5239 5242 5249 5260 5275 5291
5691 5681 5671 5660 5648 5636 5623 5608 5593 5577 5561 5544 5526 5508 5490 5472 5454 5437 5421 5405 5389 5374 5359 5346 5333 5321 5310 5299 5288 5277 5268 5258 5251 5246 5241 5237 5235 5234 5237 5244 5254 5267 5283
5682 5672 5662 5651 5639 5627 5614 5600 5585 5569 5553 5536 5519 5502 5484 5466 5449 5432 5416 5401 5385 5370 5355 5343 5330 5319 5308 5297 5286 5276 5266 5257 5249 5243 5238 5234 5231 5231 5233 5239 5249 5262 5276
5672 5662 5652 5641 5630 5618 5605 5592 5577 5562 5546 5529 5512 5495 5478 5461 5444 5427 5412 5396 5381 5367 5353 5339 5327 5316 5306 5295 5285 5275 5265 5256 5248 5241 5236 5232 5229 5228 5229 5235 5244 5256 5271
5662 5653 5643 5632 5621 5609 5597 5583 5569 5554 5539 5523 5506 5489 5472 5456 5439 5424 5409 5394 5379 5364 5349 5336 5324 5313 5303 5293 5283 5274 5264 5255 5247 5240 5234 5230 5227 5225 5227 5232 5241 5252 5266
5652 5643 5633 5622 5611 5600 5588 5575 5561 5547 5532 5517 5500 5484 5467 5451 5435 5419 5404 5389 5374 5360 5347 5334 5322 5311 5301 5291 5281 5272 5263 5254 5246 5239 5233 5228 5225 5224 5225 5230 5238 5249 5263
5642 5633 5623 5612 5601 5590 5579 5567 5554 5540 5525 5510 5495 5478 5462 5446 5431 5416 5401 5386 5371 5358 5345 5332 5320 5309 5300 5290 5281 5271 5262 5253 5246 5238 5232 5228 5224 5223 5225 5229 5236 5246 5259
5631 5622 5612 5602 5591 5581 5570 5558 5546 5533 5519 5505 5490 5474 5458 5443 5428 5413 5399 5384 5369 5356 5343 5331 5319 5308 5298 5289 5280 5271 5262 5253 5245 5237 5231 5227 5224 5223 5224 5228 5235 5245 5256
5619 5611 5601 5591 5581 5571 5561 5550 5538 5526 5513 5499 5485 5469 5454 5439 5425 5410 5396 5382 5368 5354 5341 5329 5318 5307 5297 5288 5279 5270 5261 5253 5244 5237 5231 5226 5223 5223 5224 5228 5235 5244 5255
5607 5599 5590 5580 5571 5561 5551 5541 5530 5518 5506 5493 5479 5465 5450 5436 5421 5408 5394 5381 5368 5355 5341 5329 5316 5305 5295 5287 5278 5270 5262 5253 5245 5237 5231 5227 5224 5223 5225 5228 5234 5243 5253
5595 5587 5578 5569 5560 5551 5542 5533 5522 5511 5499 5487 5474 5461 5447 5432 5418 5405 5391 5379 5366 5353 5341 5329 5316 5305 5295 5286 5277 5269 5261 5253 5246 5239 5232 5228 5225 5224 5225 5229 5235 5243 5253
5581 5574 5566 5558 5549 5541 5532 5523 5514 5503 5492 5480 5468 5455 5441 5428 5415 5402 5389 5376 5364 5352 5340 5328 5317 5305 5295 5286 5277 5269 5262 5254 5247 5240 5234 5229 5226 5225 5227 5230 5236 5243 5252
5567 5560 5553 5546 5538 5530 5522 5514 5505 5495 5485 5474 5462 5450 5437 5424 5412 5399 5386 5374 5362 5350 5339 5327 5316 5305 5295 5286 5278 5270 5263 5256 5249 5242 5236 5232 5229 5228 5229 5232 5237 5243 5252
5553 5547 5540 5533 5526 5519 5512 5504 5496 5487 5478 5468 5457 5445 5433 5421 5409 5396 5384 5372 5361 5349 5338 5327 5316 5305 5294 5286 5278 5271 5264 5258 5251 5245 5239 5235 5232 5230 5231 5234 5239 5245 5252
5540 5534 5528 5521 5515 5508 5502 5495 5487 5479 5471 5461 5451 5440 5428 5417 5406 5394 5383 5372 5361 5350 5339 5327 5316 5305 5296 5287 5280 5273 5266 5260 5254 5248 5243 5239 5236 5234 5234 5237 5241 5246 5253
5527 5521 5515 5509 5504 5498 5491 5485 5478 5471 5463 5455 5445 5435 5424 5413 5403 5392 5381 5370 5360 5349 5339 5328 5317 5307 5298 5289 5282 5275 5269 5263 5257 5252 5247 5243 5240 5239 5239 5240 5244 5248 5254
5515 5509 5504 5498 5492 5487 5481 5476 5469 5463 5456 5448 5440 5430 5420 5410 5400 5389 5379 5368 5358 5348 5338 5328 5318 5308 5299 5291 5283 5277 5271 5266 5261 5256 5252 5248 5245 5244 5244 5245 5248 5252 5257
5503 5497 5492 5487 5481 5476 5472 5466 5461 5455 5449 5442 5434 5425 5416 5406 5397 5387 5376 5367 5357 5348 5338 5329 5319 5309 5301 5293 5285 5279 5273 5268 5264 5260 5256 5253 5251 5250 5250 5251 5253 5256 5260
5490 5485 5480 5476 5471 5466 5461 5457 5452 5447 5441 5435 5428 5420 5411 5402 5393 5384 5374 5365 5355 5347 5338 5329 5320 5311 5302 5294 5287 5281 5275 5271 5267 5264 5261 5258 5257 5256 5256 5257 5258 5261 5264
5477 5473 5468 5464 5459 5455 5451 5448 5443 5438 5434 5428 5422 5415 5407 5398 5390 5381 5372 5363 5354 5346 5338 5329 5321 5312 5304 5296 5289 5283 5278 5273 5270 5267 5265 5263 5262 5261 5261 5262 5263 5266 5270
5463 5459 5456 5452 5448 5445 5442 5438 5434 5430 5426 5421 5416 5410 5402 5395 5387 5379 5370 5361 5353 5345 5338 5330 5322 5314 5306 5298 5291 5285 5280 5276 5273 5270 5269 5267 5266 5266 5267 5268 5269 5272 5275
5446 5443 5441 5439 5436 5433 5431 5428 5425 5422 5419 5415 5410 5404 5397 5390 5383 5376 5368 5360 5352 5345 5337 5330 5322 5315 5307 5300 5293 5287 5282 5277 5275 5273 5271 5271 5270 5271 5272 5273 5275 5277 5280
5429 5426 5425 5424 5423 5421 5420 5418 5416 5414 5411 5408 5404 5398 5393 5386 5380 5373 5365 5358 5351 5344 5337 5330 5323 5316 5309 5301 5294 5288 5283 5279 5276 5274 5273 5273 5273 5274 5276 5278 5280 5282 5286
5410 5409 5409 5409 5409 5409 5409 5408 5407 5405 5403 5401 5397 5393 5388 5382 5376 5370 5363 5356 5349 5343 5336 5330 5323 5317 5310 5303 5296 5290 5284 5280 5277 5275 5275 5275 5276 5277 5279 5282 5284 5287 5290
5391 5391 5392 5394 5395 5397 5398 5398 5398 5397 5395 5394 5391 5387 5383 5378 5373 5367 5360 5354 5348 5342 5336 5330 5324 5317 5311 5304 5298 5291 5286 5281 5278 5276 5275 5276 5277 5279 5282 5285 5288 5291 5294
5372 5373 5375 5378 5381 5384 5386 5388 5388 5388 5388 5387 5385 5382 5378 5374 5369 5364 5358 5352 5346 5341 5335 5329 5324 5318 5312 5306 5299 5293 5287 5282 5279 5277 5276 5276 5278 5280 5283 5286 5290 5294 5298